Plymouth, NH

10:56 AM EST on February 20, 2017 (GMT -0500)
Plymouth

Weather History for K1P1 - February, 2013

Change the Weather History Date:

Monday, February 11, 2013

  Actual Average (KLCI) Record (KLCI)
Temperature  
Mean Temperature 16 °F -  
Max Temperature 28 °F 33 °F 53 °F (2009)
Min Temperature 4 °F 11 °F -9 °F (1994)
Degree Days  
Heating Degree Days 49    
Moisture  
Dew Point 16 °F    
Average Humidity 91    
Maximum Humidity 99    
Minimum Humidity 71    
Precipitation  
Precipitation 0.17 in - - ()
Sea Level Pressure  
Sea Level Pressure 29.96 in    
Wind  
Wind Speed 0 mph (East)    
Max Wind Speed 5 mph    
Max Gust Speed -    
Visibility 5 miles    
Events Fog , Snow    
Averages and records for this station are not official NWS values.
T = Trace of Precipitation, MM = Missing Value Source: NWS Daily Summary

Daily Weather History Graph

Daily Weather History Graph

Search for Another Location

Airport or City:

Trip Planner

Search our weather history database for the weather conditions in past years. The results will help you decide how hot, cold, wet, or windy it might be!

Date:

Astronomy

Feb. 11, 2013 Rise Set
Actual Time 6:51 AM EST 5:11 PM EST
Civil Twilight 6:21 AM EST 5:41 PM EST
Nautical Twilight 5:47 AM EST 6:15 PM EST
Astronomical Twilight 5:14 AM EST 6:48 PM EST
Moon 7:09 AM EST (2/11) 7:11 PM EST (2/11)
Length of Visible Light 11h 20m
Length of Day
10h 20m
Waxing Crescent, 3% of the Moon is Illuminated
Feb 11
Waxing Crescent
Feb 17
First Quarter
Feb 25
Full
Mar 4
Last Quarter
Mar 11
New

Hourly Weather History & Observations

Time (EST) Temp. Windchill Dew Point Humidity Pressure Visibility Wind Dir Wind Speed Gust Speed Precip Events Conditions
12:15 AM 5.9 °F - 3.4 °F 89% 30.32 in 10.0 mi Calm Calm - N/A   Unknown
12:35 AM 5.0 °F - 2.3 °F 89% 30.32 in 10.0 mi Calm Calm - N/A   Unknown
12:55 AM 4.1 °F - 1.8 °F 90% 30.31 in 10.0 mi Calm Calm - N/A   Unknown
1:15 AM 4.6 °F - 2.3 °F 90% 30.29 in 10.0 mi Calm Calm - N/A   Unknown
1:35 AM 5.0 °F - 1.6 °F 86% 30.29 in 10.0 mi Calm Calm - N/A   Unknown
1:55 AM 5.0 °F - 1.4 °F 85% 30.29 in 10.0 mi Calm Calm - N/A   Unknown
2:15 AM 5.5 °F - 2.3 °F 86% 30.28 in 10.0 mi Calm Calm - N/A   Unknown
2:35 AM 5.2 °F - 2.5 °F 89% 30.27 in 10.0 mi Calm Calm - N/A   Unknown
2:55 AM 5.5 °F - 2.1 °F 86% 30.27 in 10.0 mi Calm Calm - N/A   Unknown
3:15 AM 5.2 °F - 1.8 °F 86% 30.26 in 10.0 mi Calm Calm - N/A   Unknown
3:35 AM 5.4 °F - 2.1 °F 86% 30.25 in 10.0 mi Calm Calm - N/A   Unknown
4:15 AM 5.9 °F - 2.7 °F 87% 30.23 in 10.0 mi Calm Calm - N/A   Unknown
4:35 AM 7.2 °F - 3.6 °F 85% 30.23 in 10.0 mi Calm Calm - N/A   Unknown
4:55 AM 7.7 °F - 4.1 °F 85% 30.21 in 10.0 mi Calm Calm - N/A   Unknown
5:15 AM 8.4 °F - 5.0 °F 86% 30.20 in 10.0 mi Calm Calm - N/A   Unknown
5:35 AM 9.3 °F - 5.4 °F 84% 30.20 in 10.0 mi Calm Calm - N/A   Unknown
5:55 AM 9.5 °F - 5.7 °F 85% 30.19 in 10.0 mi Calm Calm - N/A   Unknown
6:15 AM 10.2 °F - 6.1 °F 83% 30.19 in 10.0 mi Calm Calm - N/A   Unknown
6:35 AM 11.3 °F - 7.0 °F 83% 30.18 in 10.0 mi Calm Calm - N/A   Unknown
6:55 AM 12.4 °F - 7.9 °F 82% 30.17 in 10.0 mi Calm Calm - N/A   Unknown
7:15 AM 13.6 °F - 8.6 °F 80% 30.16 in 10.0 mi Calm Calm - N/A   Unknown
7:35 AM 14.5 °F 8.8 °F 9.3 °F 80% 30.15 in 10.0 mi ENE 3.5 mph - N/A   Unknown
7:55 AM 15.6 °F - 9.5 °F 77% 30.15 in 10.0 mi Calm Calm - N/A   Unknown
8:15 AM 16.3 °F 10.8 °F 9.5 °F 74% 30.14 in 10.0 mi East 3.5 mph - N/A   Unknown
8:35 AM 17.4 °F - 9.5 °F 71% 30.13 in 10.0 mi Calm Calm - N/A   Unknown
8:55 AM 17.6 °F - 9.7 °F 71% 30.11 in 10.0 mi Calm Calm - N/A   Unknown
9:15 AM 18.0 °F - 10.0 °F 71% 30.11 in 4.0 mi Calm Calm - N/A Snow Light Snow
9:35 AM 18.0 °F - 12.2 °F 78% 30.10 in 2.0 mi Calm Calm - N/A Snow Light Snow
9:55 AM 17.6 °F - 13.5 °F 84% 30.10 in 1.0 mi Calm Calm - N/A Snow Light Snow
10:15 AM 17.2 °F - 14.7 °F 90% 30.07 in 0.2 mi Calm Calm - 0.01 in Snow Snow
10:35 AM 18.1 °F - 16.2 °F 92% 30.05 in 0.5 mi Calm Calm - 0.05 in Snow Snow
10:55 AM 19.4 °F - 17.6 °F 93% 30.04 in 0.5 mi Calm Calm - 0.06 in Snow Snow
11:15 AM 20.7 °F - 18.5 °F 91% 30.02 in 0.8 mi Calm Calm - 0.01 in Snow Light Snow
11:35 AM 21.0 °F 16.2 °F 18.7 °F 91% 30.00 in 0.5 mi ENE 3.5 mph - 0.03 in Snow Snow
11:55 AM 20.3 °F 13.8 °F 18.3 °F 92% 29.98 in 1.0 mi East 4.6 mph - 0.05 in Snow Light Snow
12:15 PM 20.3 °F 15.4 °F 18.5 °F 93% 29.95 in 0.8 mi East 3.5 mph - 0.01 in Snow Light Snow
12:35 PM 20.8 °F - 19.0 °F 93% 29.93 in 0.8 mi Calm Calm - 0.02 in Snow Light Snow
12:55 PM 21.2 °F 16.4 °F 19.4 °F 93% 29.91 in 1.0 mi East 3.5 mph - 0.03 in Snow Light Snow
1:15 PM 21.2 °F - 19.4 °F 93% 29.89 in 1.0 mi Calm Calm - 0.01 in Snow Light Snow
1:35 PM 22.1 °F 17.4 °F 20.3 °F 93% 29.87 in 1.2 mi ENE 3.5 mph - 0.02 in Snow Light Snow
1:55 PM 22.5 °F - 20.7 °F 93% 29.86 in 1.5 mi Calm Calm - 0.02 in Snow Light Snow
2:15 PM 23.0 °F - 21.4 °F 94% 29.85 in 1.5 mi Calm Calm - N/A Snow Light Snow
2:35 PM 23.2 °F - 22.1 °F 96% 29.84 in 1.8 mi Calm Calm - 0.01 in   Unknown
2:55 PM 23.7 °F - 22.8 °F 96% 29.82 in 1.8 mi Calm Calm - 0.01 in   Unknown
3:15 PM 24.3 °F 19.9 °F 23.5 °F 97% 29.79 in 1.8 mi East 3.5 mph - N/A   Mist
3:35 PM 24.8 °F - 24.1 °F 97% 29.79 in 3.0 mi Calm Calm - N/A   Mist
4:15 PM 25.5 °F - 24.8 °F 97% 29.75 in 7.0 mi Calm Calm - N/A   Unknown
4:35 PM 25.5 °F - 24.8 °F 97% 29.74 in 10.0 mi Calm Calm - N/A   Unknown
4:55 PM 25.7 °F - 25.2 °F 98% 29.73 in 10.0 mi Calm Calm - N/A   Unknown
6:15 PM 25.7 °F - 25.2 °F 98% 29.69 in 3.0 mi Calm Calm - N/A   Mist
6:35 PM 25.7 °F - 25.3 °F 99% 29.68 in 2.5 mi Calm Calm - N/A   Mist
6:55 PM 25.7 °F - 25.5 °F 99% 29.68 in 2.5 mi Calm Calm - N/A   Mist
7:15 PM 26.1 °F - 25.7 °F 99% 29.67 in 1.8 mi Calm Calm - N/A   Mist
7:35 PM 26.1 °F - 25.7 °F 99% 29.66 in 1.2 mi Calm Calm - N/A   Mist
7:55 PM 26.1 °F - 25.7 °F 99% 29.65 in 0.8 mi Calm Calm - N/A   Mist
8:15 PM 26.1 °F - 25.7 °F 99% 29.64 in 0.8 mi Calm Calm - N/A   Mist
8:35 PM 26.2 °F - 25.7 °F 98% 29.64 in 0.5 mi Calm Calm - N/A Fog Light Freezing Fog
8:55 PM 26.2 °F - 25.7 °F 98% 29.64 in 0.8 mi Calm Calm - N/A   Mist
9:15 PM 26.4 °F - 26.1 °F 99% 29.64 in 0.5 mi Calm Calm - N/A Fog Light Freezing Fog
9:35 PM 26.6 °F - 26.2 °F 99% 29.63 in 0.5 mi Calm Calm - N/A Fog Light Freezing Fog
9:55 PM 26.6 °F - 26.4 °F 99% 29.63 in 2.0 mi Calm Calm - N/A   Unknown
10:15 PM 27.3 °F - 26.8 °F 98% 29.61 in 1.5 mi Calm Calm - N/A   Unknown
10:35 PM 27.5 °F - 27.3 °F 99% 29.61 in 3.0 mi Calm Calm - N/A   Mist
10:55 PM 27.9 °F - 27.5 °F 99% 29.61 in 5.0 mi Calm Calm - N/A   Mist
11:15 PM 28.2 °F - 27.9 °F 99% 29.60 in 5.0 mi Calm Calm - N/A   Mist
11:35 PM 27.5 °F - 27.3 °F 99% 29.59 in 4.0 mi Calm Calm - N/A   Mist
11:55 PM 27.5 °F - 27.1 °F 99% 29.58 in 4.0 mi Calm Calm - N/A   Mist